When you browse on this site, cookies collect data to enhance your experience and personalize the content and advertising you see.
Visit our Privacy Policy to learn more. By continuing to use the site, you agree to this use of cookies and data.
  • In Hungary
  • List of Countries
  • For 7 days
  • Water Temperature
  • Satellite Maps
  • Weather Map
  • News
  • Weather Widgets
  • user-avatar
    Login

    Hourly Weather Agawam

    Today, 26 June, Wednesday

    Time Temperature Precipitation Wind Pressure Humidity
    00:00 +19°C° 0 mm 0 mps 757 mmHg 97%
    01:00 +18°C° 0 mm 0 mps 758 mmHg 97%
    02:00 +20°C° 0 mm 1 mps 758 mmHg 96%
    03:00 +20°C° 0 mm 1 mps 758 mmHg 96%
    04:00 +19°C° 0 mm 1 mps 758 mmHg 95%
    05:00 +20°C° 0 mm 1 mps 759 mmHg 93%
    06:00 +22°C° 0 mm 1 mps 759 mmHg 90%
    07:00 +23°C° 0 mm 1 mps 760 mmHg 87%
    08:00 +25°C° 0 mm 1 mps 760 mmHg 76%
    09:00 +28°C° 0 mm 1 mps 760 mmHg 65%
    10:00 +30°C° 0 mm 1 mps 760 mmHg 54%
    11:00 +31°C° 0 mm 1 mps 760 mmHg 50%
    12:00 +32°C° 0 mm 1 mps 760 mmHg 45%
    13:00 +34°C° 0 mm 1 mps 759 mmHg 40%
    14:00 +33°C° 0 mm 1 mps 759 mmHg 40%
    15:00 +33°C° 0 mm 1 mps 759 mmHg 39%
    16:00 +32°C° 0 mm 2 mps 759 mmHg 39%
    17:00 +30°C° 0 mm 1 mps 759 mmHg 50%
    18:00 +28°C° 0 mm 1 mps 760 mmHg 62%
    19:00 +25°C° 0 mm 1 mps 760 mmHg 74%
    20:00 +24°C° 0.1 mm 1 mps 760 mmHg 79%
    21:00 +23°C° 0.1 mm 1 mps 761 mmHg 84%
    22:00 +21°C° 0.1 mm 1 mps 761 mmHg 90%
    23:00 +21°C° 0 mm 1 mps 761 mmHg 91%

    Tomorrow, 27 June, Thursday

    Time Temperature Precipitation Wind Pressure Humidity
    00:00 +18°C° 0 mm 0 mps 761 mmHg 92%
    01:00 +18°C° 0 mm 0 mps 761 mmHg 94%
    02:00 +17°C° 0 mm 0 mps 761 mmHg 94%
    03:00 +17°C° 0 mm 0 mps 761 mmHg 94%
    04:00 +17°C° 0 mm 0 mps 761 mmHg 95%
    05:00 +19°C° 0 mm 0 mps 762 mmHg 90%
    06:00 +20°C° 0 mm 0 mps 762 mmHg 85%
    07:00 +22°C° 0 mm 0 mps 763 mmHg 80%
    08:00 +26°C° 0 mm 1 mps 762 mmHg 69%
    09:00 +28°C° 0 mm 1 mps 762 mmHg 58%
    10:00 +31°C° 0 mm 1 mps 762 mmHg 47%
    11:00 +31°C° 0 mm 2 mps 762 mmHg 43%
    12:00 +32°C° 0 mm 2 mps 762 mmHg 38%
    13:00 +34°C° 0 mm 3 mps 762 mmHg 34%
    14:00 +34°C° 0 mm 3 mps 761 mmHg 35%
    15:00 +33°C° 0 mm 3 mps 761 mmHg 36%
    16:00 +33°C° 0 mm 3 mps 761 mmHg 36%
    17:00 +30°C° 0 mm 2 mps 761 mmHg 46%
    18:00 +28°C° 0 mm 2 mps 761 mmHg 56%
    19:00 +25°C° 0 mm 1 mps 762 mmHg 65%
    20:00 +24°C° 0 mm 1 mps 762 mmHg 65%
    21:00 +23°C° 0 mm 1 mps 762 mmHg 64%
    22:00 +22°C° 0 mm 1 mps 762 mmHg 64%
    23:00 +21°C° 0 mm 1 mps 762 mmHg 67%

    Day after tomorrow, 28 June, Friday

    Time Temperature Precipitation Wind Pressure Humidity
    00:00 +21°C° 0 mm 1 mps 762 mmHg 69%
    01:00 +20°C° 0 mm 1 mps 762 mmHg 72%
    02:00 +19°C° 0 mm 1 mps 762 mmHg 74%
    03:00 +19°C° 0 mm 1 mps 762 mmHg 77%
    04:00 +18°C° 0 mm 1 mps 762 mmHg 79%
    05:00 +20°C° 0 mm 1 mps 762 mmHg 74%
    06:00 +22°C° 0 mm 1 mps 762 mmHg 70%
    07:00 +24°C° 0 mm 1 mps 763 mmHg 65%
    08:00 +26°C° 0 mm 1 mps 763 mmHg 57%
    09:00 +29°C° 0 mm 1 mps 762 mmHg 49%
    10:00 +31°C° 0 mm 2 mps 762 mmHg 41%
    11:00 +31°C° 0 mm 2 mps 762 mmHg 43%
    12:00 +31°C° 0 mm 2 mps 762 mmHg 46%
    13:00 +31°C° 0 mm 2 mps 762 mmHg 48%
    14:00 +31°C° 0 mm 2 mps 762 mmHg 46%
    15:00 +31°C° 0 mm 3 mps 761 mmHg 44%
    16:00 +31°C° 0 mm 3 mps 761 mmHg 42%
    17:00 +29°C° 0 mm 3 mps 761 mmHg 50%
    18:00 +27°C° 0 mm 3 mps 761 mmHg 58%
    19:00 +25°C° 0 mm 2 mps 762 mmHg 66%
    20:00 +24°C° 0.1 mm 2 mps 761 mmHg 70%
    21:00 +23°C° 0.1 mm 1 mps 761 mmHg 74%
    22:00 +22°C° 0.1 mm 1 mps 760 mmHg 77%
    23:00 +22°C° 0.2 mm 1 mps 760 mmHg 82%

    29 June, Saturday

    Time Temperature Precipitation Wind Pressure Humidity
    00:00 +19°C° 0.2 mm 0 mps 760 mmHg 86%
    01:00 +19°C° 0.2 mm 0 mps 760 mmHg 90%
    02:00 +19°C° 0.2 mm 0 mps 759 mmHg 91%
    03:00 +19°C° 0.2 mm 0 mps 759 mmHg 92%
    04:00 +19°C° 0.2 mm 0 mps 759 mmHg 93%
    05:00 +19°C° 0 mm 0 mps 759 mmHg 92%
    06:00 +20°C° 0 mm 0 mps 758 mmHg 90%
    07:00 +21°C° 0 mm 0 mps 758 mmHg 88%
    08:00 +26°C° 0 mm 1 mps 758 mmHg 79%
    09:00 +28°C° 0 mm 1 mps 758 mmHg 70%
    10:00 +30°C° 0 mm 2 mps 757 mmHg 61%
    11:00 +31°C° 0.1 mm 2 mps 757 mmHg 57%
    12:00 +33°C° 0.1 mm 3 mps 756 mmHg 52%
    13:00 +34°C° 0.1 mm 3 mps 756 mmHg 48%
    14:00 +34°C° 0 mm 3 mps 755 mmHg 49%
    15:00 +34°C° 0 mm 4 mps 755 mmHg 50%
    16:00 +33°C° 0 mm 4 mps 755 mmHg 51%
    17:00 +30°C° 0.1 mm 3 mps 755 mmHg 60%
    18:00 +28°C° 0.1 mm 3 mps 755 mmHg 70%
    19:00 +26°C° 0.1 mm 3 mps 755 mmHg 79%
    20:00 +25°C° 0 mm 2 mps 755 mmHg 81%
    21:00 +24°C° 0 mm 2 mps 756 mmHg 82%
    22:00 +23°C° 0 mm 2 mps 756 mmHg 83%
    23:00 +23°C° 0 mm 2 mps 755 mmHg 86%

    30 June, Sunday

    Time Temperature Precipitation Wind Pressure Humidity
    00:00 +21°C° 0 mm 2 mps 755 mmHg 88%
    01:00 +20°C° 0 mm 2 mps 755 mmHg 90%
    02:00 +20°C° 0 mm 2 mps 755 mmHg 88%
    03:00 +20°C° 0 mm 2 mps 754 mmHg 86%
    04:00 +20°C° 0 mm 2 mps 754 mmHg 84%
    05:00 +21°C° 0 mm 3 mps 754 mmHg 79%
    06:00 +22°C° 0 mm 3 mps 754 mmHg 73%
    07:00 +24°C° 0 mm 3 mps 754 mmHg 68%
    08:00 +26°C° 0 mm 4 mps 754 mmHg 63%
    09:00 +27°C° 0 mm 4 mps 753 mmHg 57%
    10:00 +28°C° 0 mm 5 mps 753 mmHg 52%
    11:00 +29°C° 0 mm 5 mps 753 mmHg 48%
    12:00 +29°C° 0 mm 5 mps 752 mmHg 44%
    13:00 +30°C° 0 mm 5 mps 752 mmHg 40%
    14:00 +29°C° 0 mm 5 mps 752 mmHg 41%
    15:00 +28°C° 0 mm 5 mps 752 mmHg 43%
    16:00 +27°C° 0 mm 5 mps 752 mmHg 45%
    17:00 +25°C° 0 mm 4 mps 753 mmHg 50%
    18:00 +22°C° 0 mm 4 mps 753 mmHg 55%
    19:00 +20°C° 0 mm 3 mps 754 mmHg 61%
    20:00 +19°C° 0 mm 3 mps 754 mmHg 62%
    21:00 +18°C° 0 mm 3 mps 754 mmHg 63%
    22:00 +17°C° 0 mm 3 mps 754 mmHg 65%
    23:00 +17°C° 0 mm 3 mps 754 mmHg 67%

    1 July, Monday

    Time Temperature Precipitation Wind Pressure Humidity
    00:00 +16°C° 0 mm 3 mps 754 mmHg 70%
    01:00 +16°C° 0 mm 3 mps 754 mmHg 73%
    02:00 +16°C° 0 mm 3 mps 755 mmHg 74%
    03:00 +16°C° 0 mm 3 mps 755 mmHg 74%
    04:00 +16°C° 0 mm 3 mps 755 mmHg 75%
    05:00 +18°C° 0 mm 3 mps 755 mmHg 71%
    06:00 +19°C° 0 mm 3 mps 755 mmHg 67%
    07:00 +21°C° 0 mm 4 mps 756 mmHg 63%
    08:00 +22°C° 0 mm 4 mps 756 mmHg 58%
    09:00 +25°C° 0 mm 4 mps 756 mmHg 53%
    10:00 +27°C° 0 mm 4 mps 756 mmHg 48%
    11:00 +28°C° 0 mm 3 mps 756 mmHg 44%
    12:00 +29°C° 0 mm 3 mps 756 mmHg 41%
    13:00 +30°C° 0 mm 3 mps 756 mmHg 38%
    14:00 +30°C° 0 mm 3 mps 756 mmHg 39%
    15:00 +30°C° 0 mm 3 mps 756 mmHg 41%
    16:00 +30°C° 0 mm 3 mps 755 mmHg 42%
    17:00 +28°C° 0 mm 2 mps 756 mmHg 51%
    18:00 +26°C° 0 mm 1 mps 756 mmHg 60%
    19:00 +24°C° 0 mm 1 mps 756 mmHg 70%
    20:00 +23°C° 0 mm 1 mps 756 mmHg 73%
    21:00 +21°C° 0 mm 1 mps 756 mmHg 76%
    22:00 +20°C° 0 mm 1 mps 756 mmHg 79%
    23:00 +19°C° 0 mm 1 mps 756 mmHg 82%
    Show more